Theta_e
315 312 314 316 318 321 322 324 321 325 326 323 320 335 334 331 330 331 339 339 343 350 354 350 348 344 343 341 340 340 338 329 325 330 331 328 324 326 326 326 323 322 333 335 341 341 341 339 333
314 313 312 317 316 317 318 321 323 321 319 317 319 321 322 324 327 334 342 339 341 348 354 350 347 344 343 342 341 341 336 325 320 322 325 323 322 325 326 325 321 327 331 336 335 335 334 330 326
311 313 315 317 316 316 316 319 320 319 319 319 320 319 320 336 346 345 349 346 341 345 351 351 348 345 344 342 341 339 333 325 319 320 321 321 322 324 325 323 322 327 330 328 328 331 330 330 331
314 316 319 317 317 317 317 318 317 320 320 319 317 321 322 330 326 335 344 350 341 346 348 351 349 345 344 342 341 338 331 326 319 318 319 320 322 324 325 322 323 327 329 328 326 325 324 321 321
316 317 319 319 319 318 317 316 318 320 319 319 316 320 319 332 335 336 344 350 343 348 347 350 348 346 345 342 340 337 329 328 322 319 319 321 322 323 324 321 324 327 329 328 326 326 321 321 321
318 317 317 317 319 319 319 318 319 320 319 318 319 318 321 325 332 333 351 351 347 349 349 349 348 347 345 342 340 336 328 330 324 319 321 322 322 323 322 322 325 326 327 326 329 323 324 325 324
319 318 317 318 319 320 319 316 318 317 318 318 317 319 318 317 329 326 352 354 350 350 350 348 348 347 345 342 340 335 329 331 327 320 321 321 321 321 322 324 326 327 325 331 325 324 324 323 323
318 319 319 319 319 318 320 314 315 315 316 316 316 319 318 316 316 324 348 354 352 349 351 349 348 348 344 340 339 336 331 331 331 325 321 321 321 322 325 327 328 329 330 326 324 324 323 323 323
313 316 316 318 318 317 314 314 313 313 314 314 315 316 315 315 316 318 348 352 355 356 355 350 347 348 345 340 338 336 333 333 332 329 323 322 321 324 327 328 327 325 325 324 323 323 323 323 321
313 312 313 314 314 313 314 313 314 313 314 314 314 315 315 315 315 318 324 347 351 350 354 354 348 348 345 341 338 337 334 333 333 331 328 323 322 324 326 325 325 324 323 323 323 323 322 322 323
310 312 312 311 313 313 314 314 312 313 314 314 314 314 314 314 314 314 315 318 339 349 350 355 352 348 346 342 339 338 336 334 333 332 329 326 323 323 325 325 324 324 323 323 323 327 325 333 327
314 312 313 313 313 312 313 312 313 313 314 314 314 313 313 314 314 313 313 315 318 342 349 350 351 353 347 343 339 338 337 335 334 332 329 327 324 323 322 323 323 324 325 324 327 334 336 335 337
313 313 313 313 313 312 312 312 312 313 313 313 313 314 314 314 313 313 314 313 316 323 336 349 349 350 351 344 341 339 337 336 334 331 328 326 325 324 323 322 323 324 328 329 333 337 337 337 339
312 313 313 313 314 312 313 313 312 313 313 314 314 314 313 313 313 314 314 314 313 319 332 347 348 350 352 347 342 339 337 335 333 331 327 325 324 324 323 322 326 336 334 337 338 338 339 342 341
313 314 314 313 313 314 313 315 313 314 314 315 315 315 314 313 313 314 314 314 313 314 332 340 347 347 347 346 343 340 337 336 334 330 328 325 323 323 322 322 338 341 337 338 341 341 341 342 341
313 313 314 314 313 314 315 316 315 315 316 316 316 316 314 313 313 314 314 314 314 313 320 337 342 346 346 346 344 341 337 336 335 332 328 325 322 322 321 333 342 341 339 338 337 337 338 340 342
313 314 314 314 314 314 315 316 316 315 316 316 316 316 315 314 314 314 315 315 315 314 315 319 335 345 346 346 345 343 337 337 336 333 329 326 322 324 322 339 340 340 339 339 339 338 339 341 342
314 314 314 314 314 314 315 316 315 315 316 316 316 316 315 315 315 315 315 315 315 314 314 318 325 339 345 347 347 344 338 337 337 334 331 326 322 335 337 338 339 338 337 337 338 339 342 342 341
313 313 314 315 314 315 315 316 316 315 316 316 316 316 316 316 315 315 315 315 315 314 315 318 326 337 339 347 347 346 342 337 337 335 332 327 323 337 340 341 339 335 335 339 339 340 341 340 338
313 314 315 315 315 316 316 316 316 316 316 316 316 316 316 316 315 315 315 315 315 315 315 319 329 332 335 341 342 345 345 338 337 335 333 330 325 337 339 338 339 335 338 341 339 338 339 337 335
315 315 315 316 316 316 317 317 316 316 316 316 316 316 316 316 316 315 314 315 315 315 315 319 325 334 338 336 345 343 344 338 337 336 332 334 331 337 339 340 337 337 341 339 337 338 336 333 327
315 315 315 317 317 319 317 319 317 317 318 317 316 315 315 315 315 315 315 314 314 315 315 317 325 333 338 340 344 345 344 340 338 335 333 339 333 339 340 339 340 339 339 338 338 334 330 327 327
315 315 315 315 316 317 317 319 318 316 317 318 317 316 315 315 315 315 315 314 313 314 315 315 323 332 336 336 338 344 343 339 338 335 337 343 339 343 342 341 340 340 338 338 334 331 328 326 324
314 314 314 314 316 318 317 319 318 317 317 316 316 315 314 313 314 314 314 314 314 313 314 314 316 329 339 339 339 343 343 339 338 335 339 343 343 343 342 342 341 338 338 334 331 329 327 325 323
313 314 317 318 321 319 316 318 318 317 317 317 316 315 314 314 314 315 314 315 314 314 315 314 316 318 339 338 343 344 342 339 341 340 341 343 344 343 342 337 334 336 335 330 329 328 325 322 318
313 314 316 318 317 317 315 316 316 316 316 315 315 315 315 316 317 317 317 316 316 315 314 315 315 320 332 337 341 341 341 341 343 341 342 343 342 341 333 334 334 333 332 329 329 327 322 316 312
314 317 315 318 316 316 315 316 315 316 316 317 316 317 317 317 317 317 317 317 316 316 314 314 315 317 319 339 344 344 342 341 341 342 340 341 340 336 336 334 332 332 331 330 327 324 316 312 312
313 313 318 319 319 318 316 316 316 315 315 317 317 317 317 316 315 316 317 317 317 316 316 315 314 315 316 333 344 343 341 340 340 341 339 339 338 338 335 334 331 331 332 327 322 316 313 312 312
313 315 315 316 318 318 317 316 316 316 316 317 317 317 316 315 314 315 315 317 316 317 316 315 314 314 322 325 342 342 340 340 340 341 340 339 337 334 333 333 333 333 326 321 316 313 312 312 311
312 313 314 318 320 318 319 317 314 315 315 316 315 314 313 314 315 315 315 315 316 317 317 315 315 318 326 317 339 339 338 341 339 341 340 337 334 335 333 334 331 328 323 316 313 313 312 311 310
Wind_Speed
3 3 5 5 3 2 5 3 3 4 3 2 8 4 8 8 4 10 9 8 10 28 35 34 32 30 27 24 22 18 15 15 17 18 16 14 14 16 16 16 16 17 17 14 13 12 11 9 8
3 7 7 3 3 6 5 2 6 1 6 10 6 5 4 5 7 9 12 13 11 21 34 35 33 31 27 25 22 18 15 15 17 18 18 17 16 16 17 17 17 18 16 13 11 11 10 8 7
6 10 4 3 3 8 4 3 3 7 9 7 7 5 6 7 16 13 20 13 18 22 32 35 33 30 27 25 22 18 16 15 17 18 18 18 17 17 17 17 18 17 15 12 10 10 8 7 6
7 4 4 3 8 4 2 6 4 9 3 4 10 6 5 11 22 24 23 11 17 26 31 35 32 29 26 25 22 18 16 16 16 17 17 17 17 17 17 17 17 16 13 11 9 8 6 5 6
8 3 2 3 4 3 4 4 5 5 5 7 11 9 14 7 26 24 15 7 17 29 30 34 33 29 26 24 21 18 16 17 16 17 17 17 17 17 16 16 16 14 12 10 8 6 6 5 5
3 2 3 7 4 3 3 7 3 4 5 7 11 15 5 17 27 28 12 4 16 27 31 33 32 29 26 24 21 18 16 17 16 17 17 18 18 17 16 16 15 13 11 9 8 6 5 5 5
3 2 1 3 1 1 2 8 4 4 9 5 17 11 7 21 24 29 16 4 13 23 30 32 31 29 26 24 21 19 16 16 16 16 17 17 17 16 16 15 14 12 11 9 8 7 6 6 6
4 2 5 4 5 5 3 11 5 6 8 14 7 3 10 19 21 23 19 5 7 19 22 30 30 30 27 25 23 19 17 17 16 15 15 16 17 16 15 14 13 12 10 8 8 7 7 7 7
4 2 3 5 5 1 10 10 6 7 7 6 9 16 14 16 16 17 12 6 4 11 20 26 31 30 29 26 23 20 19 18 17 16 15 16 17 17 15 15 13 11 9 8 8 8 7 7 6
1 1 4 1 2 2 7 8 15 8 9 5 11 11 10 11 13 13 12 8 8 9 15 22 28 30 28 26 25 24 22 21 20 18 17 17 18 17 16 14 12 10 10 9 9 8 7 6 7
2 1 3 4 3 4 8 10 6 11 9 9 8 15 14 11 13 12 12 9 9 11 16 18 23 28 28 28 27 25 24 22 21 19 19 19 18 18 17 14 12 11 9 9 8 6 5 6 8
1 3 2 5 6 5 9 7 11 15 14 14 16 14 17 17 16 14 13 11 8 12 17 19 21 23 27 27 26 26 25 23 22 21 20 19 19 19 18 16 13 12 10 9 7 6 7 6 6
2 2 5 11 14 10 12 14 12 13 19 16 15 16 15 20 16 15 13 12 9 8 15 25 24 26 26 28 28 27 25 23 22 21 19 17 18 18 17 16 14 12 10 8 8 7 7 7 8
2 6 11 9 5 6 4 8 3 10 12 15 15 17 19 17 17 16 16 14 12 9 16 23 31 31 28 30 28 27 25 23 21 21 18 18 18 17 17 16 13 10 9 8 7 8 8 8 8
5 9 9 5 3 6 3 10 9 8 13 16 19 18 18 18 18 19 17 16 15 11 12 24 28 33 34 32 29 27 26 25 22 20 19 18 17 17 17 16 13 9 9 9 6 7 8 6 6
6 2 7 9 11 3 5 17 4 12 13 21 20 18 17 17 16 11 9 13 16 14 14 21 25 28 35 34 30 29 28 26 23 20 19 18 17 17 18 17 12 8 9 8 9 8 7 8 9
1 10 14 9 8 10 6 17 6 22 20 19 19 18 17 16 15 16 14 11 12 18 18 18 28 29 32 34 33 28 26 24 23 20 19 18 17 17 19 17 12 10 8 8 10 7 9 10 11
16 17 15 15 8 13 18 23 19 21 21 21 21 20 18 17 16 13 14 16 11 17 20 19 23 33 29 35 34 30 28 27 24 22 21 19 18 17 16 15 12 12 10 8 7 7 9 12 14
13 15 20 18 15 20 20 23 21 23 24 24 25 20 20 19 16 14 13 15 17 16 21 21 20 33 34 29 35 32 30 29 27 25 22 18 20 17 14 12 11 8 8 7 5 8 12 15 13
13 16 18 15 14 19 21 26 24 22 26 30 29 25 21 19 18 17 16 15 17 17 21 23 22 29 34 32 32 37 32 27 26 26 24 20 21 18 14 12 11 8 7 7 4 8 11 11 9
17 14 18 22 19 16 18 20 6 9 18 27 26 25 22 20 18 20 19 18 16 18 19 25 24 26 35 31 32 32 32 28 31 30 26 22 22 18 15 12 12 11 8 6 3 7 8 7 4
17 13 13 13 12 8 7 12 14 14 18 13 21 19 19 20 19 21 22 24 23 19 17 19 25 27 31 36 29 34 42 44 39 34 28 23 23 20 19 15 13 10 7 5 3 5 3 5 6
11 5 8 15 17 18 13 8 4 5 14 15 11 12 13 16 19 19 20 23 26 24 22 17 21 28 30 32 35 29 35 38 36 32 29 27 27 23 19 15 12 7 8 2 3 4 3 5 6
3 7 17 13 7 8 13 13 3 4 6 9 7 6 4 2 8 12 13 16 22 25 25 21 17 21 28 30 35 34 37 36 32 35 33 32 28 26 24 20 13 7 2 4 5 4 5 7 6
11 12 5 4 4 5 2 6 15 13 19 20 15 15 3 6 9 9 11 12 20 21 23 20 20 20 25 26 32 38 39 30 31 37 41 39 35 32 22 15 7 3 2 3 6 7 8 6 6
16 5 4 5 4 7 8 8 3 10 17 15 14 5 1 4 1 4 8 13 12 23 21 17 23 22 24 26 30 39 37 38 33 41 42 36 33 26 20 19 15 12 6 4 5 10 8 3 3
3 6 2 4 11 9 6 7 12 14 12 5 8 8 8 6 5 7 8 7 15 18 26 22 21 22 21 29 32 41 42 37 36 36 36 33 29 25 22 19 19 11 7 12 6 9 4 0 3
13 1 4 4 4 6 6 11 9 12 8 2 5 7 6 6 10 11 12 12 10 16 23 26 21 25 20 28 38 39 38 36 35 35 36 32 30 29 22 19 14 14 13 11 10 7 4 2 4
5 8 7 3 5 5 9 4 2 7 6 7 6 4 5 9 12 14 18 17 14 14 17 25 24 23 22 26 30 36 39 36 36 35 37 36 32 26 26 19 18 16 14 11 8 6 5 3 5
13 14 13 5 5 6 7 14 13 15 10 7 13 15 18 15 17 20 19 21 19 15 15 21 25 23 27 19 36 39 36 40 34 38 39 35 32 26 20 19 17 15 13 11 8 6 4 5 5
Wind_Direction
227 200 161 150 212 268 231 194 285 167 176 354 300 242 290 310 262 288 305 325 253 191 183 182 184 183 182 179 176 189 194 192 187 185 186 181 176 167 164 164 165 166 166 168 165 170 179 183 183
167 153 142 110 220 221 231 201 217 358 316 316 307 251 262 288 312 308 338 291 239 203 186 185 189 185 183 182 186 193 195 193 189 186 184 183 178 171 168 164 164 165 166 169 173 183 187 183 179
156 157 146 160 176 226 243 156 141 317 328 342 340 310 331 351 358 339 323 313 226 197 196 188 190 187 184 185 190 197 196 193 189 186 185 180 176 173 169 167 167 167 168 169 172 178 183 190 192
148 122 71 218 201 218 251 140 345 336 337 28 353 292 11 62 348 334 326 311 224 199 194 190 191 190 188 189 190 197 196 194 190 187 185 180 175 172 173 170 169 170 174 179 178 174 182 190 199
151 108 161 196 219 281 270 275 275 335 330 333 352 326 324 348 354 349 344 304 212 196 193 189 191 192 191 190 192 197 196 193 190 186 183 179 175 175 176 174 174 176 182 188 185 184 186 198 211
99 111 191 225 223 222 256 312 277 358 326 316 348 328 326 351 356 356 354 291 200 192 190 190 192 193 192 193 194 198 197 194 190 186 182 180 177 180 178 177 180 184 189 190 188 188 196 210 224
130 155 164 150 223 238 138 6 33 7 342 310 332 317 309 349 358 349 351 336 188 188 188 191 192 192 194 194 196 197 196 196 192 186 185 182 180 180 181 182 186 192 192 195 194 201 208 216 227
109 93 145 165 194 232 325 340 331 329 314 306 315 315 324 338 352 349 336 328 196 198 189 190 192 193 193 193 195 197 198 197 195 190 189 186 183 182 184 188 191 193 196 198 204 214 224 231 232
107 144 162 168 187 220 347 332 320 311 270 284 278 295 307 328 343 352 336 309 174 186 193 195 195 195 194 195 194 196 197 196 195 191 192 189 189 186 188 191 190 194 192 202 213 225 224 225 225
77 185 166 186 12 325 332 306 312 306 298 266 290 289 309 330 340 351 351 335 236 190 188 195 196 198 197 198 198 197 197 198 196 195 195 197 198 196 194 195 195 199 197 210 223 224 218 210 202
129 99 162 143 356 335 306 300 299 292 282 295 287 303 308 315 325 333 342 347 283 225 201 198 201 199 197 200 201 201 200 201 202 202 201 203 203 203 202 202 202 206 211 217 219 215 203 180 202
249 113 163 315 304 289 282 281 279 279 276 289 289 294 301 305 309 314 323 319 347 246 220 210 210 204 204 201 203 206 208 206 208 208 208 209 207 209 207 206 207 210 215 217 207 187 187 200 217
119 338 298 307 293 275 269 249 255 261 276 283 286 289 286 299 298 304 308 299 295 262 235 227 211 210 213 208 207 210 212 212 214 217 216 212 213 215 212 210 209 214 219 211 197 202 208 226 239
243 279 294 291 282 272 256 275 247 250 267 286 280 281 276 280 288 287 290 288 276 274 235 230 222 216 212 215 212 214 215 218 220 223 222 217 215 216 215 211 209 207 190 187 205 220 228 253 248
296 303 312 208 297 297 288 266 226 259 310 298 303 298 289 262 273 276 269 267 270 268 236 224 225 223 221 217 216 216 216 217 222 226 224 219 216 213 209 206 200 204 195 206 224 239 239 256 264
306 266 312 318 303 253 301 281 286 285 302 297 295 298 301 277 257 249 267 262 259 249 234 218 227 225 225 221 217 216 217 218 218 223 225 221 213 211 204 196 200 203 203 217 238 249 264 267 274
283 306 308 310 289 293 257 291 286 297 292 289 288 291 294 296 265 272 268 267 263 246 237 230 223 225 221 216 215 215 217 219 221 222 224 221 213 204 200 199 204 207 213 236 254 259 271 272 281
310 304 297 294 301 285 285 279 285 283 282 280 281 280 277 279 279 280 265 263 275 240 236 235 236 219 218 214 209 209 211 213 217 219 221 217 208 196 198 205 208 213 223 249 240 276 283 281 287
283 285 287 291 292 293 293 289 286 280 277 270 270 261 264 263 265 272 273 263 256 248 229 226 229 215 211 197 200 204 213 208 213 216 218 214 206 200 202 195 204 199 204 229 258 289 288 289 290
273 279 286 291 293 297 292 285 285 271 261 262 261 259 246 252 252 249 260 271 254 260 235 234 224 224 219 205 209 203 210 210 215 216 214 208 202 199 202 199 205 198 205 219 276 295 293 288 295
273 273 288 299 307 291 290 288 273 282 264 262 260 252 251 247 241 243 247 254 263 259 253 227 221 220 221 221 207 210 209 214 214 213 209 203 197 195 195 199 210 194 206 230 275 323 295 282 291
282 281 296 301 311 307 346 292 286 289 281 275 264 259 254 253 251 252 250 252 252 263 264 249 229 227 218 218 208 206 203 203 209 210 200 195 191 193 187 189 197 204 215 245 313 3 312 286 288
293 310 296 297 289 291 252 259 308 274 281 295 288 265 257 252 238 235 243 242 237 246 257 268 240 229 224 216 212 210 209 208 204 209 192 189 185 186 182 194 196 195 221 197 56 16 304 279 301
1 326 304 292 271 257 260 224 306 285 265 304 306 326 347 247 238 246 239 230 225 229 238 249 245 226 221 225 222 216 211 209 201 200 193 185 183 189 178 188 184 172 173 87 53 16 281 275 312
329 316 298 261 204 259 42 265 251 272 273 292 296 307 293 279 263 253 235 231 231 231 225 236 236 225 219 213 207 210 206 210 204 202 197 186 185 187 170 174 185 136 79 95 45 334 290 306 319
298 246 261 289 263 294 288 254 253 262 279 296 298 313 90 137 354 281 264 240 251 234 236 228 236 220 216 211 203 206 207 213 210 203 198 191 189 177 191 185 181 185 186 321 310 274 253 284 333
166 221 246 267 254 275 233 249 273 268 282 358 25 120 105 66 16 326 310 297 256 247 237 234 234 224 213 206 195 194 203 206 209 204 199 193 188 186 183 193 201 191 222 230 222 225 220 48 19
232 247 229 215 273 271 255 271 264 284 307 291 69 53 56 8 348 339 331 311 285 263 243 232 236 238 211 196 192 195 201 205 213 199 189 190 185 183 178 184 188 193 204 195 200 183 151 91 37
202 229 218 281 260 279 300 268 209 279 306 308 287 293 324 339 335 325 323 314 295 279 257 230 230 236 217 209 199 199 208 214 203 207 197 183 187 190 189 184 187 180 172 175 183 173 128 76 50
262 256 238 236 202 230 278 279 270 276 303 320 315 313 315 317 317 312 307 307 289 292 278 239 224 224 218 199 204 196 203 196 202 201 188 188 191 183 184 178 166 166 170 164 165 146 118 82 54